Timeline UpdatesTrip UpdatesNews PostsPvt PostsTravel TipsAdmin PostsConv PostsFollowed PostsChat RequestsBlog PostsPNR Posts

Disclaimer
Search
 
 
Sun Apr 20, 2014 03:52:21 ISTHomeTrainsΣChainsAtlasPNRForumGalleryNewsFAQTripsMembersLoginFeedback
No Recent News for this Train
Other Trains in the News **new
Latest...
Cancelled on 5/4/14 #1046550
Sat Apr 05, 2014 (12:53AM)
⇐ Return Journey: Train# 15484

14083⇒15483/Sikkim Mahananda Express

Apr 20 departure has been Rescheduled to start 2h 45m late
New Time: 10:00
Jan 14 2014 (8:05PM)
Change Departure Station:
Change Arrival Station:
Post a Train Travel TipPost a Train Travel Tip **new
Post a Comment/Question/Picture/VideoPost a Comment/Question/Picture/Video
Pantry/Catering
✓ Pantry Car Avbl
✓ Catering Avbl
RSA - Rake Sharing
Rake/Coach Composition
Loco-SLR-GS-GS-B1-AB1-B2-S13-S12-S11-PC-S10-S9-S8-S7-S6-S5-S4-S3-S2-S1-GS-GS-GS-SLR.
Loco
SGUJ WDP-4 (APDJ to PNBE), GZB/MGS WAP-4 (PNBE to DLI)
News    PNR    Forum    Time-Table    Availability    Fare Chart    Map    Arr/Dep History    Trips    Gallery    ΣChains    X/O    Timeline    
Travel Time: 16h 5m    29 halts    Distance: 658 km    Avg Speed: 40 km/hr
Type: Mail/Express
Zone: NFR/Northeast Frontier
Departs @ 07:15 (Avg 3h 57m late)
Platform# 1
SMTWTFS
Alipur Duar Junction/APDJ 
Arrives @ 23:20 (Avg 4h 29m late)
Platform# 4
SMTWTFS
Patna Junction/PNBE 

29 halts. 125 intermediate Stations between Alipur Duar Junction and Patna Junction

Show ALL intermediate Stations  Show Old Time-Table

#CodeStation NameX/OArrivesAvgDepartsAvgHaltPFDay#KmSpeedElevZoneAddress
1APDJ»Alipur Duar Junction (3)»  -07:15+3:57110.06053mNFR03564-255091, West Bengal
2HSAHasimara (3)X  07:50+3:5807:52+3:582m--134.856123mNFRDist - jalpaiguri, West Bengal
3DLODalgaon (3)  08:19+4:0008:20+4:011m1159.950120mNFRPh:03563-266013, West Bengal
4BNVBinnaguri (3)  08:31+4:0308:32+4:041m--169.162132mNFRBinnaguri, West Bengal
5NMZNew Mal Junction (3)X  09:15+4:1309:20+4:175m--1113.441161mNFRDist - Jalpaiguri, West Bengal
6SGUJSiliguri Junction (5)  10:30+4:0910:35+4:175m--1161.229120mNFRDist-Darjeeling Siliguri-734001, West Bengal
7NJPNew Jalpaiguri Junction (8)X  10:50+4:0611:10+4:0820m31168.576114mNFRCity-Siliguri . Dist-Jalpaiguri, West Bengal
8AUBAluabari Road (2)  11:55+4:1711:57+4:182m21225.2730mNFRDist - uttar Dinajpur, West Bengal
9KNEKishanGanj (3)X  12:22+4:2212:27+4:225m21255.86852mNFRKishanganj, Bihar
10DLKDalkhola (3)X  12:52+4:2612:53+4:271m101284.37644mNFRDalkola, West Bengal
11BOEBarsoi Junction (3)  13:16+4:3113:18+4:322m--1313.45737mNFRdist- katihar, Bihar
12AZRAzamnagar Road (2)  13:32+4:3313:33+4:361m--1326.73534mNFRAzamnagar, Bihar
13LAVLabha  14:09+4:3114:10+4:321m--1347.81829mNFRNational Highway 81, Bihar
14KIRKatihar Junction (7)XO  15:25+4:1615:45+4:1820m51370.64335mNFR854105., Bihar
15SMOSemapur16:01+4:1716:03+4:172m--1382.1-35mECRKatihar, Bihar
16CRRKaragola Road  16:06+4:2516:07+4:281m--1392.96836mECRLachhmipur, Bihar
17KUEKurselaX  16:22+4:3116:23+4:351m--1409.97431mECRNH 31, Bihar
18NNANaugachia  16:38+4:3416:39+4:351m--1428.46037mECRBhagalpur, Bihar
19THBThana Bihpur JunctionXO  16:55+4:3616:56+4:381m--1444.31639mECRThana Bihpur, Bihar
20NNRNarayanpur  17:24+4:3217:25+4:321m--1451.95039mECRNarayanpur, Bihar
21PSRPasrahaX  17:39+4:3217:40+4:361m--1463.55341mECRPasraha, Bihar
22MSKMahes Khunt  17:54+4:3717:55+4:411m--1475.95737mECRMaheshkhunt, Bihar
23MNEMansi Junction (3)X  18:06+4:4218:07+4:451m--1486.33143mECR06244-233234, Bihar
24KGGKhagaria Junction (3)X  18:24+4:4018:25+4:451m--1495.15343mECR06244-223596, Bihar
25SKJSahibpur Kamal Junction (2)X  18:39+4:4418:40+4:461m--1507.54241mECRShahpur Kamal, Bihar
26LKNLakhminia  18:54+4:4218:55+4:431m--1517.22245mECRBegusarai, Bihar
27BGSBegu Sarai (2)X  19:44+4:3419:45+4:301m--1535.015 ECR06243-222853, Bihar
28BJUBarauni Junction (9)X  20:40+5:0020:45+4:555m11548.419 ECRBegusarai, Bihar
29MKAMokama Junction (3)X  21:51+5:0421:53+5:012m31569.18848mECRPatna, Bihar
30BKPBakhtiyarpur Junction (5)  22:23+4:5522:25+4:572m--1613.24951mECRPatna, Bihar
31PNBE•Patna Junction (10)•X  23:20+4:2923:45+4:3325m41658.33557mECRPatna 800001, Bihar
32DNRDanapur (5)  00:01+4:3400:03+4:342m--2667.79158mECRKhagaul, Bihar
33ARAAra Junction (3)  00:29+4:3300:31+4:412m--2707.37163mECRarrah( 06182-233411), Bihar
34BXRBuxar (3)X  01:29+4:3101:32+4:313m--2775.84267mECRBuxar, Bihar
35MGSMughal Sarai Junction (8)X  03:45+3:5604:00+3:5915m42869.76483mECRMughalsarai 232101, Uttar Pradesh
36MZPMirzapur (3)  04:59+4:0605:00+4:091m--2932.94088mNCRMirzapur, Uttar Pradesh
37BDLVindhyachal (3)X  05:11+4:1905:12+4:211m--2940.28888mNCRMirzapur, Uttar Pradesh
38NYNNaini Junction (4)  06:03+4:2206:05+4:142m221015.01798mNCRAllahabad, Uttar Pradesh
39ALDAllahabad Junction (10)X  06:30+4:2306:35+4:285m321022.189100mNCRAllahabad 211003, Uttar Pradesh
40FTPFatehpur (3)  07:54+4:3307:55+4:281m--21138.862120mNCRFatehpur, Uttar Pradesh
41CNBKanpur Central (10)  09:10+4:4009:20+4:4310m521216.441128mNCRKanpur, Uttar Pradesh
42PNKPanki (3)X  09:37+4:3709:38+4:381m--21227.976129mNCRKANPUR-208 020, Uttar Pradesh
43RURARura (4)X  10:04+4:4410:05+4:461m--21260.771137mNCRJhinjhak, Uttar Pradesh
44JJKJhinjhak (3)  10:21+4:3610:22+4:381m321279.859140mNCRAuraiya, Uttar Pradesh
45PHDPhaphund (4)X  10:42+4:4210:43+4:451m--21299.653146mNCRdist. Auraiya, Uttar Pradesh
46ULDAchalda (3)X  11:02+4:4311:03+4:451m--21316.465147mNCRDist. Auraiya(05688-1072), Uttar Pradesh
47BNTBharthana (3)X  11:21+4:4411:22+4:541m--21335.952147mNCRBharthana, Uttar Pradesh
48ETWEtawah (5)X  11:45+4:5011:46+5:011m221355.872154mNCRDistt. Etawah, Uttar Pradesh
49SKBShikohabad Junction (4)  12:32+5:0112:33+5:121m321411.257166mNCRDistrict Firozabad, Uttar Pradesh
50FZDFirozabad (4)O  12:54+5:0012:55+5:131m321431.125164mNCRFirozabad, Uttar Pradesh
51TDLTundla Junction (4)  13:35+5:0013:45+4:5810m221447.670167mNCRDistt.Firozabad, Uttar Pradesh
52JLSJalesar Road (1)X  14:09+5:0614:10+5:081m121475.563172mNCRMDR 106W, Uttar Pradesh
53HRSHathras Junction (3)  14:29+5:1214:30+5:151m--21495.660183mNCRMahamaya Nagar(05722-242803), Uttar Pradesh
54ALJNAligarh Junction (4)O  15:00+5:2215:05+5:325m221525.775192mNCRAligarh, Uttar Pradesh
55KRJKhurja Junction (4)XO  15:40+5:2715:45+5:265m--21569.238199mNCRBulandshahr, Uttar Pradesh
56GZBGhaziabad Junction (6)X  17:25+5:1217:30+5:185m321631.943217mNRGhaziabad, Uttar Pradesh
57DSAShahdara Junction (4)  17:49+5:1117:50+5:191m--21645.519212mNRCircular Rd, Delhi NCT
58DLIOld Delhi Junction (16)  18:10+5:12-1121651.8-219mNRNear Chandni Chowk Metro Station, Delhi NCT
Scroll to Top
Scroll to Bottom